This is the latest recevied weather packets stored in our database for station/object WV5G-13. If no packets are shown the sender has not sent any weather packets the latest 10 day(s).
| Time | Temp. | Humidity | Pressure | Rain* | Wind** | Luminosity | Snow |
|---|---|---|---|---|---|---|---|
| 1777407170 | 23.33° C | 31% | 1011.6 hPa | 0 mm | - | 786 W/m² | - |
| 1777406865 | 23.33° C | 34% | 1011.5 hPa | 0 mm | - | 794 W/m² | - |
| 1777406560 | 22.78° C | 32% | 1011.6 hPa | 0 mm | - | 797 W/m² | - |
| 1777406257 | 22.78° C | 32% | 1011.6 hPa | 0 mm | - | 805 W/m² | - |
| 1777405955 | 23.33° C | 32% | 1011.7 hPa | 0 mm | - | 813 W/m² | - |
| 1777405652 | 23.33° C | 33% | 1011.7 hPa | 0 mm | - | 821 W/m² | - |
| 1777405349 | 22.78° C | 33% | 1011.7 hPa | 0 mm | - | 830 W/m² | - |
| 1777405045 | 22.78° C | 36% | 1012 hPa | 0 mm | - | 834 W/m² | - |
| 1777404740 | 22.78° C | 35% | 1011.7 hPa | 0 mm | - | 847 W/m² | - |
| 1777404436 | 21.67° C | 35% | 1011.9 hPa | 0 mm | - | 850 W/m² | - |
| 1777404132 | 22.22° C | 34% | 1012.1 hPa | 0 mm | - | 856 W/m² | - |
| 1777403828 | 22.22° C | 35% | 1011.9 hPa | 0 mm | - | 859 W/m² | - |
| 1777403523 | 22.22° C | 36% | 1012.2 hPa | 0 mm | - | 864 W/m² | - |
| 1777403217 | 22.22° C | 35% | 1011.9 hPa | 0 mm | - | 872 W/m² | - |
| 1777402913 | 21.11° C | 37% | 1012 hPa | 0 mm | - | 881 W/m² | - |
| 1777402608 | 21.67° C | 37% | 1012.1 hPa | 0 mm | - | 888 W/m² | - |
| 1777402306 | 21.67° C | 34% | 1012.2 hPa | 0 mm | - | 892 W/m² | - |
| 1777402000 | 21.67° C | 35% | 1012.1 hPa | 0 mm | - | 894 W/m² | - |
| 1777401699 | 21.11° C | 38% | 1012.5 hPa | 0 mm | - | 896 W/m² | - |
| 1777401396 | 20.56° C | 42% | 1012.3 hPa | 0 mm | - | 902 W/m² | - |
| 1777401092 | 21.11° C | 41% | 1012.3 hPa | 0 mm | - | 906 W/m² | - |
| 1777400787 | 20.56° C | 40% | 1012.3 hPa | 0 mm | - | 908 W/m² | - |
| 1777400485 | 20° C | 42% | 1012.7 hPa | 0 mm | - | 911 W/m² | - |
| 1777400181 | 20° C | 41% | 1012.3 hPa | 0 mm | - | 912 W/m² | - |
| 1777399877 | 20.56° C | 41% | 1012.3 hPa | 0 mm | - | 912 W/m² | - |
* Rain latest hour (hover to see other rain measurements)
** Current wind speed in m/s (hover to see current wind gust speed)